Location: Aufkirchen
(47.9603°N, 11.3653°E)
Time: 16:00:38
(UTC+01:00)

X-37B - Visible Passes

Search period start: 09 December 2021 00:00
Search period end: 19 December 2021 00:00
Orbit: 329 x 342 km, 45.0° (Epoch: 06 December)

Date Brightness Start Highest point End Pass type
(mag) Time Alt. Az. Time Alt. Az. Time Alt. Az.
09 Dec 2.6 17:22:11 10° SSW 17:24:09 17° SSE 17:26:06 10° ESE visible
09 Dec 3.2 18:56:27 10° WSW 18:57:23 18° SW 18:57:23 18° SW visible
10 Dec 1.8 17:41:48 10° SW 17:44:21 28° SSE 17:45:42 19° ESE visible
10 Dec 4.0 19:16:45 10° WSW 19:16:56 11° WSW 19:16:56 11° WSW visible
11 Dec 1.2 18:01:53 10° WSW 18:04:38 40° S 18:05:14 35° SE visible
12 Dec 1.1 18:22:11 10° WSW 18:24:47 45° SSW 18:24:47 45° SSW visible
13 Dec 1.4 17:07:20 10° WSW 17:10:04 40° S 17:12:50 10° E visible
13 Dec 2.3 18:42:35 10° W 18:44:22 29° SW 18:44:22 29° SW visible
14 Dec 1.1 17:27:37 10° WSW 17:30:25 46° S 17:32:46 13° ESE visible
14 Dec 3.4 19:03:05 10° W 19:03:59 17° WSW 19:03:59 17° WSW visible
15 Dec 1.4 17:48:01 10° W 17:50:45 40° S 17:52:28 19° SE visible
16 Dec 2.1 18:08:31 10° W 18:11:04 28° SSW 18:12:16 20° SSE visible
17 Dec 1.6 16:53:27 10° W 16:56:12 40° S 16:58:57 10° ESE visible
17 Dec 2.9 18:29:19 10° WSW 18:31:16 17° SSW 18:32:15 14° S visible
18 Dec 2.3 17:13:57 10° W 17:16:30 28° SSW 17:19:02 10° SE visible
